| time (UTC) | temp F | wind direction | speed MPH | gust MPH | rain 1hr in | rain 24hr in | rain mn in | humidity % | barometer mb |
| 20260508070800 | 51 | 84 | 5.0 | 10.0 | 0.00 | 0.08 | 0.01 | 88 | 1006.4 |
| 20260508065800 | 51 | 97 | 3.0 | 7.0 | 0.00 | 0.08 | 0.01 | 88 | 1006.1 |
| 20260508064800 | 51 | 174 | 1.0 | 5.0 | 0.00 | 0.08 | 0.01 | 88 | 1006.0 |
| 20260508063800 | 51 | 33 | 0.0 | 6.0 | 0.00 | 0.08 | 0.01 | 88 | 1005.7 |
| 20260508062800 | 51 | 22 | 4.0 | 7.0 | 0.00 | 0.08 | 0.01 | 89 | 1005.6 |
| 20260508061800 | 51 | 25 | 3.0 | 7.0 | 0.00 | 0.08 | 0.01 | 89 | 1005.5 |
| 20260508060800 | 51 | 84 | 2.0 | 9.0 | 0.00 | 0.08 | 0.01 | 90 | 1005.3 |
| 20260508055800 | 51 | 54 | 3.0 | 7.0 | 0.00 | 0.08 | 0.01 | 91 | 1005.1 |
| 20260508054800 | 51 | 38 | 4.0 | 8.0 | 0.00 | 0.08 | 0.01 | 94 | 1005.1 |
| 20260508053800 | 51 | 67 | 1.0 | 8.0 | 0.00 | 0.08 | 0.01 | 99 | 1005.2 |
| 20260508052800 | 50 | 104 | 3.0 | 6.0 | 0.00 | 0.08 | 0.01 | 99 | 1005.1 |
| 20260508051800 | 49 | 122 | 2.0 | 5.0 | 0.00 | 0.08 | 0.01 | 99 | 1005.1 |
| 20260508050800 | 49 | 109 | 2.0 | 6.0 | 0.00 | 0.08 | 0.01 | 99 | 1005.0 |
| 20260508045800 | 49 | 108 | 1.0 | 5.0 | 0.00 | 0.08 | 0.01 | 99 | 1005.0 |
| 20260508044800 | 49 | 96 | 2.0 | 4.0 | 0.00 | 0.08 | 0.01 | 99 | 1005.0 |
| 20260508043800 | 49 | 86 | 0.0 | 3.0 | 0.00 | 0.08 | 0.01 | 99 | 1005.1 |
| 20260508042800 | 49 | 91 | 0.0 | 3.0 | 0.00 | 0.08 | 0.01 | 99 | 1005.1 |
| 20260508041800 | 49 | 93 | 0.0 | 5.0 | 0.00 | 0.08 | 0.01 | 99 | 1005.0 |
| 20260508040800 | 49 | 70 | 2.0 | 4.0 | 0.00 | 0.08 | 0.01 | 99 | 1005.0 |
| 20260508035800 | 49 | 69 | 1.0 | 3.0 | 0.00 | 0.08 | 0.01 | 99 | 1005.1 |
| 20260508034800 | 49 | 124 | 0.0 | 1.0 | 0.00 | 0.08 | 0.01 | 99 | 1005.1 |
| 20260508033800 | 50 | 48 | 0.0 | 5.0 | 0.00 | 0.08 | 0.01 | 99 | 1005.2 |
| 20260508032800 | 50 | 35 | 0.0 | 4.0 | 0.00 | 0.08 | 0.01 | 99 | 1005.2 |
| 20260508031800 | 50 | 3 | 0.0 | 4.0 | 0.00 | 0.08 | 0.01 | 99 | 1005.3 |
| 20260508030800 | 50 | 80 | 0.0 | 6.0 | 0.00 | 0.08 | 0.01 | 99 | 1005.4 |
| 20260508025800 | 50 | 71 | 2.0 | 6.0 | 0.00 | 0.08 | 0.01 | 99 | 1005.1 |
| 20260508024800 | 50 | 72 | 2.0 | 5.0 | 0.00 | 0.08 | 0.01 | 99 | 1005.4 |
| 20260508023800 | 50 | 90 | 1.0 | 6.0 | 0.00 | 0.08 | 0.01 | 99 | 1005.6 |
| 20260508022800 | 50 | 37 | 3.0 | 6.0 | 0.00 | 0.08 | 0.01 | 99 | 1005.6 |
| 20260508021800 | 49 | 69 | 6.0 | 9.0 | 0.00 | 0.08 | 0.01 | 99 | 1005.8 |
| 20260508020800 | 49 | 51 | 1.0 | 5.0 | 0.01 | 0.08 | 0.01 | 99 | 1006.0 |
| 20260508015800 | 49 | 65 | 1.0 | 3.0 | 0.01 | 0.08 | 0.01 | 99 | 1006.2 |
| 20260508014800 | 49 | 90 | 0.0 | 2.0 | 0.01 | 0.08 | 0.01 | 99 | 1006.1 |
| 20260508013800 | 49 | 0 | 0.0 | 0.0 | 0.01 | 0.08 | 0.01 | 99 | 1006.3 |
| 20260508012800 | 49 | 129 | 0.0 | 3.0 | 0.01 | 0.08 | 0.01 | 99 | 1006.5 |
| 20260508011800 | 49 | 132 | 0.0 | 3.0 | 0.01 | 0.08 | 0.01 | 99 | 1006.6 |
| 20260508010800 | 49 | 88 | 1.0 | 3.0 | 0.00 | 0.07 | 0.00 | 99 | 1006.7 |
| 20260508005800 | 49 | 16 | 0.0 | 3.0 | 0.00 | 0.07 | 0.00 | 99 | 1006.9 |
| 20260508004800 | 49 | 266 | 0.0 | 5.0 | 0.00 | 0.07 | 0.00 | 99 | 1007.4 |
| 20260508003800 | 49 | 252 | 1.0 | 4.0 | 0.00 | 0.07 | 0.00 | 99 | 1007.5 |
| 20260508002800 | 49 | 6 | 0.0 | 3.0 | 0.00 | 0.07 | 0.00 | 99 | 1007.5 |
| 20260508001800 | 49 | 311 | 0.0 | 3.0 | 0.00 | 0.07 | 0.00 | 99 | 1007.1 |
| 20260508000800 | 49 | 225 | 0.0 | 0.0 | 0.00 | 0.07 | 0.00 | 99 | 1007.2 |
| 20260507235800 | 49 | 140 | 0.0 | 3.0 | 0.00 | 0.07 | 0.00 | 99 | 1007.2 |
| 20260507234759 | 49 | 108 | 2.0 | 4.0 | 0.00 | 0.07 | 0.00 | 99 | 1007.1 |
| 20260507233800 | 50 | 103 | 0.0 | 3.0 | 0.00 | 0.07 | 0.00 | 99 | 1007.0 |
| 20260507232759 | 50 | 80 | 0.0 | 3.0 | 0.00 | 0.07 | 0.00 | 99 | 1007.3 |
| 20260507231800 | 50 | 74 | 0.0 | 3.0 | 0.00 | 0.07 | 0.00 | 99 | 1007.3 |
| 20260507230759 | 50 | 103 | 1.0 | 4.0 | 0.00 | 0.07 | 0.00 | 99 | 1007.4 |
| 20260507225759 | 50 | 108 | 1.0 | 2.0 | 0.00 | 0.07 | 0.00 | 99 | 1007.5 |
| 20260507224759 | 51 | 45 | 0.0 | 2.0 | 0.00 | 0.07 | 0.00 | 99 | 1007.7 |
| 20260507223759 | 51 | 94 | 1.0 | 3.0 | 0.00 | 0.07 | 0.00 | 99 | 1007.6 |
| 20260507222759 | 51 | 125 | 0.0 | 3.0 | 0.00 | 0.07 | 0.00 | 98 | 1007.9 |
| 20260507221759 | 51 | 94 | 0.0 | 3.0 | 0.00 | 0.07 | 0.00 | 97 | 1007.8 |
| 20260507220759 | 51 | 104 | 0.0 | 3.0 | 0.00 | 0.07 | 0.00 | 96 | 1008.0 |
| 20260507215759 | 51 | 145 | 1.0 | 2.0 | 0.00 | 0.07 | 0.07 | 94 | 1008.0 |
| 20260507214759 | 51 | 136 | 0.0 | 2.0 | 0.00 | 0.07 | 0.07 | 94 | 1008.1 |
| 20260507213759 | 51 | 181 | 0.0 | 1.0 | 0.00 | 0.07 | 0.07 | 93 | 1007.8 |
| 20260507212759 | 51 | 133 | 0.0 | 0.0 | 0.00 | 0.07 | 0.07 | 92 | 1007.8 |
| 20260507211759 | 51 | 137 | 0.0 | 1.0 | 0.00 | 0.07 | 0.07 | 91 | 1007.8 |
| 20260507210759 | 52 | 136 | 0.0 | 1.0 | 0.01 | 0.07 | 0.07 | 91 | 1007.6 |
| 20260507205759 | 52 | 171 | 0.0 | 1.0 | 0.03 | 0.07 | 0.07 | 90 | 1007.6 |
| 20260507204759 | 52 | 261 | 0.0 | 2.0 | 0.04 | 0.07 | 0.07 | 90 | 1007.4 |
| 20260507203759 | 52 | 303 | 0.0 | 3.0 | 0.04 | 0.07 | 0.07 | 90 | 1007.3 |
| 20260507202759 | 53 | 247 | 0.0 | 3.0 | 0.04 | 0.07 | 0.07 | 88 | 1007.2 |
| 20260507201759 | 53 | 247 | 1.0 | 5.0 | 0.04 | 0.07 | 0.07 | 84 | 1007.3 |
| 20260507200759 | 54 | 225 | 2.0 | 6.0 | 0.03 | 0.05 | 0.05 | 81 | 1007.0 |
| 20260507195759 | 54 | 194 | 0.0 | 7.0 | 0.00 | 0.02 | 0.02 | 74 | 1006.9 |
| 20260507194759 | 55 | 206 | 4.0 | 7.0 | 0.00 | 0.02 | 0.02 | 73 | 1006.6 |
| 20260507193759 | 55 | 227 | 2.0 | 5.0 | 0.00 | 0.02 | 0.02 | 73 | 1006.2 |
| 20260507192759 | 55 | 194 | 3.0 | 7.0 | 0.00 | 0.02 | 0.02 | 71 | 1006.1 |
| 20260507191759 | 56 | 195 | 3.0 | 6.0 | 0.00 | 0.02 | 0.02 | 65 | 1005.9 |
| 20260507190759 | 58 | 212 | 2.0 | 3.0 | 0.00 | 0.02 | 0.02 | 59 | 1005.9 |
| 20260507185759 | 59 | 285 | 0.0 | 3.0 | 0.00 | 0.02 | 0.02 | 55 | 1005.7 |
| 20260507184759 | 60 | 87 | 0.0 | 4.0 | 0.00 | 0.02 | 0.02 | 52 | 1005.4 |
| 20260507183759 | 60 | 70 | 0.0 | 3.0 | 0.00 | 0.02 | 0.02 | 51 | 1005.1 |
| 20260507182759 | 60 | 105 | 0.0 | 7.0 | 0.00 | 0.02 | 0.02 | 50 | 1005.1 |
| 20260507181759 | 61 | 91 | 3.0 | 7.0 | 0.00 | 0.02 | 0.02 | 48 | 1005.1 |
| 20260507180759 | 61 | 111 | 3.0 | 9.0 | 0.00 | 0.02 | 0.02 | 49 | 1005.1 |
| 20260507175759 | 61 | 137 | 3.0 | 8.0 | 0.00 | 0.02 | 0.02 | 46 | 1004.8 |
| 20260507174759 | 63 | 120 | 5.0 | 9.0 | 0.00 | 0.02 | 0.02 | 40 | 1004.7 |
| 20260507173759 | 64 | 123 | 4.0 | 10.0 | 0.00 | 0.02 | 0.02 | 43 | 1004.6 |
| 20260507172759 | 62 | 145 | 6.0 | 10.0 | 0.00 | 0.02 | 0.02 | 48 | 1004.8 |
| 20260507171759 | 63 | 118 | 5.0 | 9.0 | 0.00 | 0.02 | 0.02 | 45 | 1004.8 |
| 20260507170759 | 64 | 127 | 3.0 | 9.0 | 0.00 | 0.02 | 0.02 | 46 | 1004.8 |
| 20260507165759 | 64 | 121 | 6.0 | 11.0 | 0.00 | 0.02 | 0.02 | 44 | 1004.7 |
| 20260507164759 | 63 | 133 | 6.0 | 12.0 | 0.00 | 0.02 | 0.02 | 46 | 1004.9 |
| 20260507163759 | 63 | 131 | 6.0 | 12.0 | 0.00 | 0.02 | 0.02 | 46 | 1005.1 |
| 20260507162759 | 63 | 119 | 5.0 | 11.0 | 0.00 | 0.02 | 0.02 | 46 | 1005.0 |
| 20260507161759 | 63 | 135 | 8.0 | 10.0 | 0.00 | 0.02 | 0.02 | 46 | 1005.1 |
| 20260507160759 | 64 | 145 | 3.0 | 7.0 | 0.00 | 0.02 | 0.02 | 46 | 1005.0 |
| 20260507155759 | 64 | 60 | 3.0 | 6.0 | 0.00 | 0.02 | 0.02 | 49 | 1005.1 |
| 20260507154759 | 63 | 70 | 3.0 | 4.0 | 0.00 | 0.02 | 0.02 | 55 | 1005.5 |
| 20260507153759 | 61 | 65 | 3.0 | 8.0 | 0.00 | 0.02 | 0.02 | 58 | 1005.4 |
| 20260507152759 | 61 | 64 | 5.0 | 10.0 | 0.01 | 0.02 | 0.02 | 61 | 1005.5 |
| 20260507151759 | 58 | 52 | 3.0 | 6.0 | 0.01 | 0.02 | 0.02 | 70 | 1005.8 |
| 20260507150759 | 56 | 34 | 1.0 | 9.0 | 0.01 | 0.02 | 0.02 | 68 | 1006.0 |
| 20260507145759 | 56 | 337 | 4.0 | 9.0 | 0.01 | 0.02 | 0.02 | 65 | 1006.0 |
| 20260507144759 | 56 | 27 | 4.0 | 6.0 | 0.01 | 0.02 | 0.02 | 64 | 1006.1 |
| 20260507143759 | 57 | 24 | 0.0 | 7.0 | 0.01 | 0.02 | 0.02 | 65 | 1006.4 |
| 20260507142759 | 58 | 65 | 5.0 | 8.0 | 0.00 | 0.01 | 0.01 | 56 | 1005.8 |
| 20260507141759 | 58 | 50 | 3.0 | 14.0 | 0.00 | 0.01 | 0.01 | 53 | 1005.7 |
| 20260507140759 | 59 | 44 | 9.0 | 12.0 | 0.00 | 0.01 | 0.01 | 53 | 1005.7 |
| 20260507135759 | 60 | 89 | 3.0 | 12.0 | 0.00 | 0.01 | 0.01 | 46 | 1005.5 |
| 20260507134759 | 62 | 92 | 3.0 | 13.0 | 0.00 | 0.01 | 0.01 | 41 | 1005.3 |
| 20260507133759 | 62 | 63 | 3.0 | 7.0 | 0.00 | 0.01 | 0.01 | 47 | 1005.3 |
| 20260507132759 | 62 | 37 | 2.0 | 9.0 | 0.00 | 0.01 | 0.01 | 47 | 1005.2 |
| 20260507131759 | 64 | 39 | 3.0 | 7.0 | 0.00 | 0.01 | 0.01 | 42 | 1005.2 |
| 20260507130759 | 63 | 20 | 3.0 | 8.0 | 0.00 | 0.01 | 0.01 | 43 | 1005.2 |
| 20260507125759 | 60 | 47 | 5.0 | 6.0 | 0.00 | 0.01 | 0.01 | 55 | 1005.3 |
| 20260507124759 | 60 | 90 | 2.0 | 7.0 | 0.00 | 0.01 | 0.01 | 54 | 1005.6 |
| 20260507123758 | 61 | 33 | 2.0 | 7.0 | 0.00 | 0.01 | 0.01 | 48 | 1005.8 |
| 20260507122758 | 62 | 49 | 3.0 | 10.0 | 0.01 | 0.01 | 0.01 | 38 | 1005.9 |
| 20260507121758 | 65 | 67 | 3.0 | 6.0 | 0.01 | 0.01 | 0.01 | 35 | 1005.8 |
| 20260507120758 | 63 | 23 | 0.0 | 3.0 | 0.01 | 0.01 | 0.01 | 47 | 1005.9 |
| 20260507115758 | 62 | 355 | 0.0 | 9.0 | 0.01 | 0.01 | 0.01 | 49 | 1006.0 |
| 20260507114758 | 62 | 17 | 5.0 | 7.0 | 0.01 | 0.01 | 0.01 | 49 | 1006.1 |
| 20260507113758 | 61 | 48 | 0.0 | 3.0 | 0.01 | 0.01 | 0.01 | 50 | 1006.3 |
| 20260507112758 | 60 | 41 | 0.0 | 6.0 | 0.00 | 0.00 | 0.00 | 47 | 1006.4 |
| 20260507111758 | 62 | 50 | 1.0 | 6.0 | 0.00 | 0.00 | 0.00 | 47 | 1006.4 |
| 20260507110758 | 62 | 51 | 0.0 | 7.0 | 0.00 | 0.00 | 0.00 | 42 | 1006.3 |
| 20260507105758 | 63 | 59 | 4.0 | 9.0 | 0.00 | 0.00 | 0.00 | 36 | 1006.3 |
| 20260507104758 | 63 | 85 | 3.0 | 7.0 | 0.00 | 0.00 | 0.00 | 36 | 1006.3 |
| 20260507103758 | 64 | 100 | 3.0 | 10.0 | 0.00 | 0.00 | 0.00 | 38 | 1006.4 |
| 20260507102758 | 65 | 77 | 3.0 | 12.0 | 0.00 | 0.00 | 0.00 | 35 | 1006.6 |
| 20260507101758 | 65 | 70 | 2.0 | 9.0 | 0.00 | 0.00 | 0.00 | 40 | 1006.6 |
| 20260507100758 | 64 | 69 | 3.0 | 10.0 | 0.00 | 0.00 | 0.00 | 45 | 1006.7 |
| 20260507095758 | 63 | 68 | 1.0 | 11.0 | 0.00 | 0.00 | 0.00 | 44 | 1006.9 |
| 20260507094758 | 62 | 70 | 3.0 | 11.0 | 0.00 | 0.00 | 0.00 | 45 | 1006.8 |
| 20260507093758 | 62 | 38 | 3.0 | 9.0 | 0.00 | 0.00 | 0.00 | 48 | 1007.0 |
| 20260507092758 | 61 | 68 | 3.0 | 9.0 | 0.00 | 0.00 | 0.00 | 48 | 1007.1 |
| 20260507091758 | 60 | 85 | 5.0 | 9.0 | 0.00 | 0.00 | 0.00 | 49 | 1007.2 |
| 20260507090758 | 60 | 96 | 6.0 | 10.0 | 0.00 | 0.00 | 0.00 | 50 | 1007.3 |
| 20260507085758 | 59 | 100 | 6.0 | 9.0 | 0.00 | 0.00 | 0.00 | 52 | 1007.3 |
| 20260507084758 | 58 | 106 | 2.0 | 7.0 | 0.00 | 0.00 | 0.00 | 58 | 1007.2 |
| 20260507083758 | 57 | 122 | 4.0 | 7.0 | 0.00 | 0.00 | 0.00 | 62 | 1007.4 |
| 20260507082758 | 55 | 88 | 2.0 | 5.0 | 0.00 | 0.00 | 0.00 | 66 | 1007.3 |
| 20260507081758 | 54 | 108 | 1.0 | 7.0 | 0.00 | 0.00 | 0.00 | 66 | 1007.4 |
| 20260507080758 | 54 | 93 | 3.0 | 6.0 | 0.00 | 0.00 | 0.00 | 67 | 1007.5 |
| 20260507075758 | 53 | 116 | 2.0 | 6.0 | 0.00 | 0.00 | 0.00 | 69 | 1007.5 |
| 20260507074758 | 53 | 94 | 2.0 | 7.0 | 0.00 | 0.00 | 0.00 | 70 | 1007.5 |
| 20260507073758 | 52 | 89 | 3.0 | 7.0 | 0.00 | 0.00 | 0.00 | 71 | 1007.6 |
| 20260507072758 | 52 | 89 | 2.0 | 7.0 | 0.00 | 0.00 | 0.00 | 70 | 1007.7 |
| 20260507071758 | 52 | 83 | 3.0 | 6.0 | 0.00 | 0.00 | 0.00 | 70 | 1007.7 |